Location: Newark
(34.4697°S, 57.8467°W)
Time: 06:32:44
(UTC+00:00)

N. Korean satellite - Pass Details

Date: 27 July 2019
Orbit: 457 x 507 km, 97.2° (Epoch: 24 August)

Event Time Altitude Azimuth Distance (km) Brightness Sun altitude
Rises 08:11:48 0° 51° (NE) 2,581 11.0 -32.3°
Reaches altitude 10° 08:14:34 10° 74° (ENE) 1,699 10.1 -31.7°
Maximum altitude 08:16:42 15° 110° (ESE) 1,414 9.6 -31.3°
Enters shadow 08:17:45 14° 130° (SE) 1,489 9.5 -31.1°
